SHT22B EGLL-EGJB

Flight info

Callsign SHT22B
Flight time 0h 35m
Altitude 20000
Route GASGU N514 EVTES/N0381F190 N621 SAM/N0375F180 N63 LELNA
Aircraft A320/M-SDE3FGHIRWY/LB1

Departure

Time 2026-05-06 19:57
Airport London Heathrow Airport (EGLL)

Arrival

Time 2026-05-06 20:32
Airport Guernsey Airport (EGJB)
Time Latitude Longitude Altitude Speed Heading
2026-05-06 19:45 51.46993 -0.48605 90 ft 0 kts 269°
2026-05-06 19:49 51.46993 -0.48593 91 ft 4 kts 269°
2026-05-06 19:50 51.46994 -0.48555 90 ft 1 kts 269°
2026-05-06 19:50 51.46995 -0.48516 88 ft 4 kts 258°
2026-05-06 19:50 51.47004 -0.48481 88 ft 4 kts 212°
2026-05-06 19:50 51.47023 -0.48473 89 ft 1 kts 180°
2026-05-06 19:52 51.47021 -0.48473 89 ft 2 kts 180°
2026-05-06 19:52 51.46972 -0.48473 87 ft 12 kts 180°
2026-05-06 19:53 51.46861 -0.48472 87 ft 18 kts 179°
2026-05-06 19:53 51.46726 -0.48470 87 ft 21 kts 179°
2026-05-06 19:53 51.46608 -0.48470 87 ft 10 kts 180°
2026-05-06 19:53 51.46588 -0.48470 88 ft 0 kts 180°
2026-05-06 19:55 51.46578 -0.48470 88 ft 5 kts 180°
2026-05-06 19:56 51.46506 -0.48470 89 ft 10 kts 180°
2026-05-06 19:56 51.46477 -0.48431 89 ft 6 kts 87°
2026-05-06 19:56 51.46479 -0.48231 89 ft 47 kts 89°
2026-05-06 19:56 51.46482 -0.47322 87 ft 112 kts 90°
2026-05-06 19:57 51.46487 -0.45795 106 ft 158 kts 89°
2026-05-06 19:57 51.46479 -0.44082 724 ft 154 kts 87°
2026-05-06 19:57 51.46492 -0.42360 1348 ft 156 kts 90°
2026-05-06 19:57 51.46055 -0.40646 1633 ft 183 kts 128°
2026-05-06 19:58 51.45191 -0.38988 1902 ft 206 kts 122°
2026-05-06 19:58 51.44358 -0.36955 2237 ft 230 kts 119°
2026-05-06 19:58 51.43422 -0.34713 2691 ft 255 kts 131°
2026-05-06 19:58 51.41947 -0.33047 3480 ft 266 kts 158°
2026-05-06 19:59 51.40107 -0.32583 4373 ft 272 kts 186°
2026-05-06 19:59 51.39285 -0.32826 4774 ft 273 kts 199°
2026-05-06 19:59 51.37725 -0.34195 5603 ft 275 kts 220°
2026-05-06 19:59 51.36799 -0.35472 5898 ft 275 kts 220°
2026-05-06 20:00 51.35250 -0.37278 6383 ft 277 kts 220°
2026-05-06 20:00 51.33795 -0.39341 7055 ft 278 kts 225°
2026-05-06 20:00 51.32412 -0.41506 7970 ft 279 kts 226°
2026-05-06 20:00 51.31101 -0.43786 8818 ft 282 kts 236°
2026-05-06 20:01 51.30184 -0.46539 9646 ft 283 kts 251°
2026-05-06 20:01 51.29641 -0.49588 10340 ft 291 kts 257°
2026-05-06 20:01 51.29081 -0.52845 10556 ft 315 kts 256°
2026-05-06 20:01 51.28457 -0.56316 10868 ft 332 kts 255°
2026-05-06 20:02 51.27789 -0.59879 11506 ft 337 kts 254°
2026-05-06 20:02 51.27094 -0.63430 12200 ft 341 kts 253°
2026-05-06 20:02 51.26374 -0.67058 12908 ft 345 kts 253°
2026-05-06 20:02 51.25647 -0.70722 13623 ft 348 kts 253°
2026-05-06 20:03 51.24913 -0.74431 14277 ft 351 kts 253°
2026-05-06 20:03 51.24177 -0.78164 14900 ft 354 kts 253°
2026-05-06 20:03 51.23437 -0.81921 15515 ft 357 kts 253°
2026-05-06 20:03 51.22689 -0.85708 16133 ft 360 kts 253°
2026-05-06 20:04 51.21935 -0.89536 16749 ft 363 kts 253°
2026-05-06 20:04 51.21155 -0.93391 17369 ft 366 kts 250°
2026-05-06 20:04 51.20044 -0.97062 17995 ft 370 kts 239°
2026-05-06 20:04 51.18530 -1.00408 18593 ft 374 kts 233°
2026-05-06 20:05 51.16926 -1.03687 19165 ft 377 kts 233°
2026-05-06 20:05 51.15314 -1.06992 19747 ft 379 kts 233°
2026-05-06 20:05 51.13690 -1.10323 19967 ft 381 kts 233°
2026-05-06 20:05 51.12049 -1.13682 20021 ft 390 kts 233°
2026-05-06 20:06 51.10372 -1.17112 20021 ft 394 kts 233°
2026-05-06 20:06 51.08618 -1.20412 19829 ft 387 kts 226°
2026-05-06 20:06 51.06602 -1.23173 19583 ft 378 kts 217°
2026-05-06 20:06 51.04456 -1.25413 19342 ft 370 kts 214°
2026-05-06 20:07 51.02305 -1.27599 19102 ft 366 kts 214°
2026-05-06 20:07 51.00128 -1.29812 18850 ft 365 kts 214°
2026-05-06 20:07 50.98025 -1.31947 18620 ft 363 kts 214°
2026-05-06 20:07 50.95901 -1.34101 18382 ft 362 kts 212°
2026-05-06 20:08 50.93673 -1.35992 18126 ft 362 kts 208°
2026-05-06 20:08 50.91430 -1.37786 17998 ft 361 kts 208°
2026-05-06 20:08 50.89185 -1.39577 18033 ft 361 kts 208°
2026-05-06 20:08 50.86937 -1.41370 18030 ft 361 kts 208°
2026-05-06 20:09 50.84699 -1.43154 18254 ft 360 kts 208°
2026-05-06 20:09 50.82458 -1.44936 18624 ft 361 kts 208°
2026-05-06 20:09 50.80207 -1.46722 18940 ft 364 kts 208°
2026-05-06 20:09 50.77933 -1.48526 19008 ft 365 kts 208°
2026-05-06 20:10 50.75670 -1.50325 19016 ft 365 kts 208°
2026-05-06 20:10 50.74164 -1.51519 19002 ft 366 kts 208°
2026-05-06 20:10 50.71012 -1.54023 19005 ft 389 kts 208°
2026-05-06 20:10 50.68609 -1.55930 19008 ft 393 kts 208°
2026-05-06 20:11 50.66162 -1.57866 19004 ft 394 kts 208°
2026-05-06 20:11 50.63708 -1.59801 19003 ft 394 kts 208°
2026-05-06 20:11 50.61252 -1.61736 19004 ft 394 kts 208°
2026-05-06 20:11 50.58793 -1.63674 19008 ft 394 kts 208°
2026-05-06 20:12 50.56342 -1.65602 19002 ft 394 kts 208°
2026-05-06 20:12 50.53887 -1.67532 19008 ft 394 kts 208°
2026-05-06 20:12 50.51483 -1.69415 19008 ft 394 kts 208°
2026-05-06 20:12 50.48977 -1.71374 19008 ft 394 kts 208°
2026-05-06 20:13 50.46521 -1.73295 19010 ft 394 kts 208°
2026-05-06 20:13 50.44099 -1.75187 19012 ft 394 kts 208°
2026-05-06 20:13 50.41642 -1.77107 19009 ft 394 kts 208°
2026-05-06 20:13 50.39157 -1.79047 19012 ft 394 kts 208°
2026-05-06 20:14 50.36732 -1.80941 19008 ft 394 kts 208°
2026-05-06 20:14 50.34278 -1.82858 19011 ft 394 kts 208°
2026-05-06 20:14 50.31821 -1.84770 19018 ft 394 kts 207°
2026-05-06 20:14 50.29361 -1.86675 19016 ft 394 kts 207°
2026-05-06 20:15 50.26902 -1.88577 19019 ft 394 kts 207°
2026-05-06 20:15 50.24435 -1.90486 19022 ft 394 kts 207°
2026-05-06 20:15 50.21979 -1.92387 19020 ft 394 kts 207°
2026-05-06 20:15 50.19519 -1.94288 19019 ft 394 kts 207°
2026-05-06 20:16 50.17057 -1.96188 19015 ft 394 kts 207°
2026-05-06 20:16 50.14601 -1.98081 19022 ft 394 kts 207°
2026-05-06 20:16 50.12171 -1.99952 19020 ft 394 kts 207°
2026-05-06 20:16 50.09713 -2.01846 19023 ft 394 kts 207°
2026-05-06 20:17 50.07252 -2.03744 19026 ft 394 kts 207°
2026-05-06 20:17 50.04797 -2.05634 19030 ft 394 kts 207°
2026-05-06 20:17 50.02336 -2.07521 18979 ft 392 kts 207°
2026-05-06 20:17 49.99923 -2.09399 18636 ft 384 kts 211°
2026-05-06 20:18 49.97747 -2.11756 18095 ft 380 kts 222°
2026-05-06 20:18 49.95921 -2.14686 17557 ft 375 kts 230°
2026-05-06 20:18 49.94209 -2.17703 17044 ft 371 kts 229°
2026-05-06 20:18 49.92509 -2.20687 16536 ft 366 kts 229°
2026-05-06 20:19 49.90826 -2.23630 16032 ft 362 kts 229°
2026-05-06 20:19 49.89164 -2.26532 15535 ft 359 kts 229°
2026-05-06 20:19 49.87509 -2.29415 15038 ft 355 kts 229°
2026-05-06 20:19 49.85874 -2.32259 14547 ft 352 kts 229°
2026-05-06 20:20 49.84803 -2.34119 14225 ft 351 kts 229°
2026-05-06 20:20 49.83176 -2.36944 13723 ft 348 kts 229°
2026-05-06 20:20 49.81049 -2.40628 13046 ft 344 kts 229°
2026-05-06 20:20 49.79462 -2.43370 12573 ft 340 kts 229°
2026-05-06 20:21 49.77890 -2.46078 12101 ft 336 kts 229°
2026-05-06 20:21 49.76331 -2.48759 11631 ft 333 kts 229°
2026-05-06 20:21 49.75315 -2.50523 11339 ft 331 kts 231°
2026-05-06 20:21 49.74126 -2.53519 10918 ft 325 kts 244°
2026-05-06 20:22 49.73164 -2.56656 10532 ft 321 kts 245°
2026-05-06 20:22 49.72225 -2.59771 10139 ft 318 kts 245°
2026-05-06 20:22 49.71294 -2.62854 9736 ft 315 kts 245°
2026-05-06 20:22 49.70368 -2.65895 9308 ft 311 kts 245°
2026-05-06 20:23 49.69450 -2.68912 8881 ft 309 kts 245°
2026-05-06 20:23 49.68541 -2.71906 8458 ft 306 kts 245°
2026-05-06 20:23 49.67642 -2.74881 8040 ft 304 kts 245°
2026-05-06 20:23 49.66752 -2.77829 7632 ft 302 kts 245°
2026-05-06 20:24 49.65880 -2.80719 7230 ft 299 kts 245°
2026-05-06 20:24 49.65007 -2.83604 6836 ft 286 kts 245°
2026-05-06 20:24 49.64195 -2.86285 6470 ft 273 kts 245°
2026-05-06 20:24 49.63344 -2.88854 6085 ft 267 kts 234°
2026-05-06 20:25 49.61971 -2.90679 5695 ft 259 kts 205°
2026-05-06 20:25 49.60266 -2.91314 5310 ft 249 kts 184°
2026-05-06 20:25 49.58579 -2.91389 5072 ft 238 kts 180°
2026-05-06 20:25 49.56931 -2.91408 4843 ft 235 kts 180°
2026-05-06 20:26 49.55320 -2.91425 4601 ft 227 kts 180°
2026-05-06 20:26 49.53761 -2.91449 4318 ft 221 kts 180°
2026-05-06 20:26 49.52218 -2.91481 4223 ft 222 kts 180°
2026-05-06 20:26 49.50676 -2.91515 4105 ft 221 kts 180°
2026-05-06 20:27 49.49140 -2.91551 3974 ft 220 kts 180°
2026-05-06 20:27 49.47612 -2.91500 3843 ft 220 kts 169°
2026-05-06 20:27 49.46220 -2.90585 3712 ft 219 kts 141°
2026-05-06 20:27 49.45269 -2.88772 3599 ft 219 kts 119°
2026-05-06 20:28 49.44516 -2.86737 3475 ft 218 kts 120°
2026-05-06 20:28 49.43778 -2.84746 3306 ft 211 kts 120°
2026-05-06 20:28 49.43110 -2.82768 3108 ft 208 kts 109°
2026-05-06 20:28 49.42904 -2.80612 2843 ft 208 kts 88°
2026-05-06 20:29 49.42971 -2.78398 2553 ft 201 kts 88°
2026-05-06 20:29 49.43034 -2.76355 2320 ft 185 kts 88°
2026-05-06 20:29 49.43089 -2.74475 2070 ft 165 kts 88°
2026-05-06 20:29 49.43137 -2.72819 1843 ft 147 kts 88°
2026-05-06 20:30 49.43181 -2.71291 1640 ft 140 kts 88°
2026-05-06 20:30 49.43266 -2.68324 1256 ft 137 kts 88°
2026-05-06 20:30 49.43309 -2.66887 1061 ft 135 kts 88°
2026-05-06 20:31 49.43352 -2.65439 850 ft 135 kts 87°
2026-05-06 20:31 49.43393 -2.63986 657 ft 135 kts 86°
2026-05-06 20:31 49.43433 -2.62536 472 ft 136 kts 86°
2026-05-06 20:31 49.43472 -2.61090 321 ft 134 kts 87°
2026-05-06 20:32 49.43505 -2.59980 319 ft 63 kts 87°
2026-05-06 20:32 49.43513 -2.59627 330 ft 25 kts 88°
2026-05-06 20:32 49.43521 -2.59377 335 ft 23 kts 87°
2026-05-06 20:32 49.43482 -2.59199 333 ft 17 kts 166°
2026-05-06 20:33 49.43393 -2.59204 331 ft 0 kts 209°
2026-05-06 20:33 49.43392 -2.59204 331 ft 0 kts 209°
2026-05-06 20:33 49.43384 -2.59213 333 ft 5 kts 217°
2026-05-06 20:33 49.43371 -2.59277 334 ft 7 kts 266°
2026-05-06 20:34 49.43369 -2.59376 334 ft 11 kts 269°
2026-05-06 20:34 49.43365 -2.59518 330 ft 14 kts 266°
2026-05-06 20:34 49.43359 -2.59625 330 ft 2 kts 242°
2026-05-06 20:34 49.43334 -2.59624 329 ft 5 kts 179°
2026-05-06 20:35 49.43289 -2.59621 329 ft 8 kts 178°
2026-05-06 20:35 49.43254 -2.59620 328 ft 3 kts 178°
2026-05-06 20:35 49.43253 -2.59620 328 ft 0 kts 178°